Flag for U.S.A. Weather past 2 weeks in Sunnyvale, California, U.S.A.

Now
52 °F

Clear.


Feels Like: 52 °F
Forecast: 49 / 68 °F
Wind: No wind

Location: Moffett Field

Current Time: Apr 26, 2015 at 2:59:29 AM

Latest Report: Apr 26, 2015 at 1:56 AM


Visibility: 10 mi

Pressure: 30.10 "Hg

Humidity: 59%

Dew point: 38 °F

Location of SunnyvaleLocation

Historic Weather in Sunnyvale — Graph

°F

Sunnyvale temperature yesterday

Maximum temperature yesterday: 64 °F (at 3:56 PM)
Minimum temperature yesterday: 54 °F (at 10:56 PM)
Average temperature yesterday: 58 °F

Past Weeks' High & Low Weather Summary

 TemperatureHumidityPressure
High80 °F (Apr 16, 3:56 PM)93% (Apr 25, 2:56 AM)30.36 "Hg (Apr 25, 2:56 AM)
Low48 °F (Apr 11, 4:56 AM)17% (Apr 16, 3:56 PM)29.85 "Hg (Apr 20, 6:56 PM)
Average59 °F61%30.01 "Hg
* Reported Apr 11 12:56 AM — Apr 26 12:56 AM, Sunnyvale, Weather by CustomWeather, © 2015

Note: Actual official high and low records may vary slightly from our data, if they occured in-between our weather recording intervals... More about our weather records

Advertising

Sunnyvale weather history for previous 24 hours

 ConditionsComfort  
Time TempWeatherWind HumidityBarometerVisibility
12:56 AM
Sun, Apr 26
53 °FClear.No wind56%30.10 "Hg10 mi
11:56 PM
Sat, Apr 25
54 °FClear.No wind55%30.10 "Hg10 mi
10:56 PM54 °FClear.5 mph57%30.10 "Hg10 mi
9:56 PM55 °FClear.3 mph57%30.09 "Hg10 mi
8:56 PM56 °FClear.7 mph55%30.07 "Hg10 mi
7:56 PM57 °FSunny.8 mph53%30.05 "Hg10 mi
6:56 PM59 °FSunny.8 mph51%30.03 "Hg10 mi
5:56 PM61 °FSunny.8 mph50%30.02 "Hg10 mi
4:56 PM62 °FSunny.9 mph52%30.01 "Hg10 mi
3:56 PM64 °FSunny.12 mph50%30.00 "Hg10 mi
2:56 PM63 °FPassing clouds.8 mph50%30.00 "Hg10 mi
1:56 PM62 °FSunny.14 mph56%29.99 "Hg10 mi
12:56 PM61 °FScattered clouds.12 mph62%29.99 "Hg10 mi
11:56 AM60 °FScattered clouds.13 mph67%30.00 "Hg10 mi
11:03 AM59 °FScattered clouds.7 mph63%29.99 "Hg10 mi
10:56 AM59 °FPartly sunny.10 mph62%29.99 "Hg10 mi
9:56 AM58 °FPartly sunny.10 mph81%29.97 "Hg10 mi
8:56 AM57 °FPartly sunny.7 mph78%29.97 "Hg10 mi
7:56 AM55 °FPartly sunny.7 mph87%29.96 "Hg10 mi
6:56 AM55 °FOvercast.6 mph87%29.95 "Hg10 mi
5:56 AM55 °FPassing clouds.6 mph90%29.94 "Hg10 mi
4:56 AM57 °FLight rain. Mostly cloudy.8 mph90%29.91 "Hg10 mi
3:56 AM56 °FLight rain. Overcast.No wind93%29.92 "Hg9 mi
2:56 AM55 °FRain. Fog.5 mph93%29.93 "Hg5 mi
Weather by CustomWeather, © 2015

See weather overviewHow to use our weather pages